Location: Unspecified
(0.0000°N, 0.0000°E)
Time: 03:16:31
(UTC+00:00)

STARLINK-1704 - Pass Details

Date: 24 February 2021
Orbit: 317 x 318 km, 53.1° (Epoch: 23 February)

Event Time Altitude Azimuth Distance (km) Brightness Sun altitude
Exits shadow 05:20:44 - 348° (NNW) 1,648 5.8 -12.9°
Reaches altitude 10° 05:21:53 10° 357° (N) 1,220 5.3 -12.7°
Maximum altitude 05:24:12 25° 56° (NE) 700 4.7 -12.1°
Drops below altitude 10° 05:26:31 10° 115° (ESE) 1,229 6.8 -11.5°
Sets 05:28:41 0° 129° (SE) 2,065 7.7 -11.0°
